Wind_Speed
24 24 23 22 22 22 22 21 21 21 22 23 22 21 20 19 18 16 15 15 15 14 13 13 13 12 13 14 14 14 14 14 14 14 14 13 12 12 11 12 12 11 11 11
26 25 23 23 24 23 23 22 21 21 22 23 22 21 20 20 19 17 17 16 15 15 15 15 15 15 16 16 15 14 14 13 13 13 13 12 11 11 11 11 11 11 11 11
25 24 24 24 24 24 24 23 21 22 22 23 23 22 20 20 20 19 18 17 16 15 15 16 16 16 17 17 15 15 14 14 13 13 12 12 11 11 11 10 10 10 10 10
26 25 26 25 25 24 24 22 23 23 23 24 23 22 20 20 19 18 17 18 18 16 16 16 16 16 17 16 15 15 15 14 13 13 12 12 12 11 11 11 10 10 10 10
26 26 26 26 25 25 24 24 24 24 25 25 24 23 20 20 18 17 18 18 17 17 17 17 17 17 16 15 16 15 15 15 14 13 12 12 12 12 11 11 10 10 10 10
27 27 27 26 25 26 25 25 25 25 26 25 23 23 19 19 17 17 18 18 18 17 18 17 16 16 15 16 16 16 16 15 14 14 13 12 12 12 11 11 11 10 10 10
28 28 27 26 26 26 26 26 27 27 27 26 23 23 19 17 17 17 17 17 18 17 17 17 17 16 16 16 17 16 15 15 14 13 13 12 13 12 11 11 11 11 10 9
28 28 27 27 26 26 26 27 28 28 27 26 24 24 20 18 17 17 16 16 16 15 15 16 17 17 17 17 16 16 15 15 14 13 13 14 13 12 11 11 11 10 10 9
29 28 26 26 26 27 27 28 27 28 28 27 26 24 21 20 19 17 16 16 16 15 15 16 16 17 17 16 15 14 14 14 14 14 13 13 13 12 11 10 9 9 9 9
29 28 27 27 27 28 28 27 27 28 28 27 26 24 22 20 20 18 17 17 16 16 16 16 17 17 17 16 15 14 14 14 14 14 13 13 12 13 11 10 9 9 8 8
29 29 27 28 29 28 29 29 29 28 29 27 26 24 21 20 19 18 17 17 17 16 17 17 17 17 16 15 15 15 14 14 13 13 12 12 12 11 10 10 9 9 8 8
30 29 28 28 28 29 29 30 30 30 29 28 26 23 21 20 19 18 18 17 17 17 16 17 17 16 15 16 15 15 14 14 14 13 13 12 10 10 10 10 10 10 9 9
29 30 29 28 29 29 30 30 30 30 30 29 28 24 21 20 19 18 18 18 17 17 17 17 17 16 15 15 15 14 14 13 14 14 14 12 12 12 11 11 11 11 10 9
30 30 30 29 28 29 30 30 30 30 30 29 27 24 22 21 20 19 19 19 19 18 17 17 17 17 16 16 15 15 14 14 14 14 14 13 13 12 12 13 12 11 11 10
30 30 30 29 28 29 29 29 29 29 29 28 26 24 22 22 21 20 20 20 19 19 18 17 18 18 17 17 16 15 15 15 14 14 14 14 13 13 13 13 13 13 13 13
31 31 30 29 28 29 29 29 30 30 29 28 25 24 23 22 22 21 22 21 20 20 19 19 19 19 19 18 17 16 16 15 15 15 14 14 14 14 13 13 13 14 14 15
31 31 31 30 28 29 30 29 30 30 28 28 26 24 23 22 21 21 22 22 21 19 19 19 19 18 19 18 17 16 16 16 15 15 15 15 16 16 15 15 15 15 16 16
31 31 31 31 30 31 28 28 28 28 28 27 26 24 24 23 22 23 22 23 22 21 21 21 20 19 19 19 19 18 17 17 16 16 16 16 16 16 16 17 17 17 17 17
31 31 32 31 30 31 30 28 28 28 27 26 25 24 25 24 24 23 23 23 23 22 21 21 21 21 20 20 19 19 19 18 18 17 17 17 17 17 18 18 18 18 18 18
31 32 32 31 30 31 29 28 28 28 27 26 26 25 25 25 25 23 23 23 23 22 22 22 22 22 22 20 20 20 20 19 18 18 18 17 17 17 18 19 18 18 18 17
30 31 31 31 30 30 28 28 27 27 26 25 25 25 24 25 24 24 24 24 22 22 23 23 23 23 21 21 21 21 21 20 20 19 19 18 18 18 18 19 19 18 18 18
28 29 28 29 29 29 28 27 27 26 25 25 25 25 25 24 24 25 25 25 23 23 23 23 23 22 22 22 22 22 22 22 21 21 20 20 19 19 19 19 19 19 19 19
26 28 27 28 29 28 28 28 27 26 26 26 26 27 26 25 26 27 27 26 25 24 23 23 23 23 23 23 23 23 23 22 22 22 22 21 19 19 19 19 18 19 19 19
24 25 25 26 27 27 26 25 25 26 25 25 25 25 25 24 25 25 26 26 24 23 23 24 24 24 24 24 23 23 23 23 22 22 22 22 20 19 19 19 19 19 19 20
20 23 23 23 23 23 23 23 24 24 23 24 24 23 23 24 24 25 24 24 24 24 24 25 25 25 24 24 23 23 22 22 23 22 21 21 21 20 20 20 20 20 20 20
18 20 21 21 21 20 21 22 23 23 23 23 23 23 23 23 23 23 24 24 24 23 24 24 24 24 23 23 22 22 23 22 22 22 21 21 21 21 21 20 20 21 21 21
Wind_Direction
240 241 243 245 246 246 245 247 246 247 249 250 251 253 252 254 260 264 268 267 271 275 280 284 288 295 300 304 303 305 307 306 303 303 303 301 295 293 291 286 281 279 279 279
239 240 242 243 244 244 245 246 246 245 246 251 251 252 254 256 260 263 269 271 273 276 279 280 282 292 299 303 303 304 304 305 306 303 300 297 292 293 290 284 280 278 276 275
241 241 241 243 245 246 247 247 246 245 246 251 253 253 255 259 262 264 268 272 272 272 273 278 280 286 296 298 298 300 301 304 301 300 297 294 289 288 289 284 280 280 279 278
240 240 241 243 245 247 247 247 246 246 247 249 253 255 254 258 261 266 270 270 269 268 270 273 278 284 292 294 295 299 298 299 296 294 294 291 288 287 283 278 278 279 279 280
239 240 241 243 245 246 246 245 245 246 248 250 253 257 256 258 262 264 267 267 266 267 267 271 275 282 288 290 292 294 294 294 292 290 289 287 286 285 280 274 272 275 275 276
238 239 241 242 241 242 242 242 244 245 247 249 253 258 258 258 261 263 263 262 264 267 267 269 273 276 281 285 289 289 289 290 290 289 287 287 288 289 277 268 270 270 271 273
239 240 240 240 240 240 240 241 243 244 246 250 252 256 258 259 261 261 261 262 264 265 268 269 273 274 275 281 286 286 285 286 286 286 287 287 288 288 282 274 271 269 268 269
239 239 240 240 239 238 239 241 243 247 250 251 250 253 256 258 260 260 263 266 264 263 268 273 275 274 274 279 284 284 283 285 284 285 286 284 286 283 278 281 272 268 266 268
238 239 238 237 236 236 237 240 243 247 249 250 249 251 254 256 259 259 262 265 265 266 269 274 276 271 272 277 281 281 283 284 284 286 284 282 280 277 275 275 267 266 266 268
238 238 236 234 234 235 235 238 240 244 248 249 249 251 256 255 260 260 261 265 268 269 272 276 279 273 272 275 278 281 280 281 280 285 282 279 276 272 268 265 262 257 263 270
236 237 234 233 233 234 233 235 238 242 246 249 250 251 256 258 259 258 261 265 270 271 273 275 278 273 271 274 277 282 282 281 282 286 284 281 277 264 255 253 254 254 262 267
236 237 235 234 234 234 235 236 238 241 245 247 249 249 252 255 255 255 260 266 270 272 271 272 275 274 272 273 277 278 279 280 285 286 281 276 273 263 258 252 252 255 261 264
235 236 235 232 232 233 234 235 238 241 244 246 247 248 247 251 252 255 258 263 268 268 270 269 271 270 272 275 277 277 277 278 280 280 275 270 267 265 261 259 257 257 258 264
235 235 235 234 234 235 237 237 238 240 242 245 247 247 246 248 250 254 257 262 264 265 269 268 268 270 274 276 277 276 275 274 274 272 271 266 264 266 262 262 260 258 261 266
235 235 235 235 234 235 237 238 239 241 244 248 248 246 246 249 252 255 257 260 261 264 267 267 268 269 273 275 276 278 275 271 270 266 265 264 264 266 266 263 259 257 261 263
236 236 236 236 234 235 237 239 240 242 245 248 250 247 244 247 252 256 257 257 259 263 265 266 268 269 270 270 273 275 273 271 270 267 264 264 266 266 265 260 259 255 258 264
236 237 236 236 235 237 238 239 240 243 246 249 249 247 245 248 250 252 255 256 257 261 263 265 268 270 271 270 270 272 271 270 269 267 265 263 264 265 262 261 260 260 261 263
237 237 237 237 235 237 237 240 242 244 246 247 248 246 246 248 248 252 256 258 259 261 262 264 266 271 274 272 269 269 269 269 270 268 265 263 264 262 261 261 262 262 264 263
234 235 236 236 236 238 239 241 241 244 247 247 247 246 245 247 248 251 255 258 260 261 261 262 265 269 271 270 268 267 267 268 268 267 267 264 262 261 263 264 264 264 265 266
232 233 235 236 237 239 240 241 242 245 247 245 245 245 246 248 249 252 254 256 260 261 262 263 264 266 266 265 265 266 267 268 268 268 270 270 267 264 264 265 266 266 265 265
231 232 233 235 237 240 241 241 242 245 245 242 242 242 246 249 251 253 254 256 260 263 263 263 264 265 263 264 265 267 267 266 266 268 270 269 269 268 266 266 264 263 263 263
229 230 232 232 235 239 240 239 240 244 244 243 242 245 247 249 252 253 255 256 259 264 263 262 261 262 262 262 263 265 266 265 264 265 265 266 268 269 268 266 262 260 261 261
228 228 230 231 234 237 238 238 241 244 246 245 245 246 247 251 253 254 255 256 258 261 262 261 261 262 261 261 261 262 265 265 263 262 263 263 264 266 266 265 263 259 259 261
229 228 229 230 233 236 239 240 242 242 243 245 246 246 247 250 252 253 252 254 256 257 258 259 261 260 260 260 259 261 263 263 262 262 261 261 261 263 264 265 265 262 262 264
230 227 229 232 234 233 236 240 242 244 246 247 246 246 248 250 252 252 250 252 253 255 256 257 258 257 257 259 260 261 261 260 259 260 260 260 261 263 265 268 268 265 265 267
229 229 231 234 234 236 239 241 242 244 245 246 247 248 248 250 252 253 252 251 252 255 257 257 258 257 255 257 260 261 260 261 261 261 261 261 264 265 265 268 270 270 269 270
Height
5832 5835 5838 5840 5842 5844 5845 5847 5849 5851 5851 5852 5853 5855 5857 5858 5859 5860 5861 5861 5862 5862 5861 5861 5860 5859 5858 5858 5856 5855 5853 5852 5851 5849 5847 5846 5845 5845 5844 5844 5843 5843 5843 5843
5828 5831 5834 5835 5837 5839 5841 5843 5845 5847 5847 5848 5850 5851 5853 5854 5856 5857 5857 5858 5859 5859 5858 5857 5857 5856 5856 5855 5853 5852 5851 5849 5848 5846 5844 5843 5842 5842 5842 5841 5841 5840 5841 5841
5823 5827 5828 5830 5832 5834 5837 5839 5841 5843 5843 5844 5846 5848 5850 5851 5852 5853 5854 5854 5855 5855 5855 5854 5853 5853 5853 5852 5850 5849 5848 5846 5845 5843 5842 5841 5840 5840 5839 5839 5838 5838 5838 5838
5817 5820 5822 5825 5827 5830 5832 5835 5837 5838 5839 5840 5842 5843 5846 5847 5848 5849 5849 5850 5850 5850 5851 5850 5850 5849 5849 5848 5847 5846 5844 5843 5842 5840 5839 5839 5838 5837 5836 5836 5836 5835 5835 5835
5812 5815 5817 5820 5823 5825 5828 5830 5831 5833 5834 5835 5837 5839 5842 5843 5844 5845 5845 5845 5845 5846 5846 5846 5846 5846 5845 5844 5843 5842 5841 5840 5838 5837 5836 5836 5835 5834 5834 5833 5833 5833 5833 5833
5806 5809 5812 5815 5817 5819 5822 5824 5825 5827 5828 5831 5834 5835 5837 5839 5840 5840 5840 5840 5841 5841 5842 5842 5842 5841 5841 5841 5839 5838 5837 5836 5835 5834 5833 5832 5832 5831 5831 5831 5831 5831 5830 5830
5800 5803 5806 5809 5811 5813 5816 5818 5820 5821 5823 5826 5829 5830 5833 5835 5836 5836 5836 5836 5836 5837 5837 5837 5838 5838 5837 5837 5836 5834 5834 5833 5832 5831 5830 5830 5829 5828 5828 5828 5828 5828 5828 5828
5794 5797 5800 5802 5805 5807 5810 5813 5815 5817 5819 5822 5824 5825 5829 5831 5831 5831 5831 5832 5832 5833 5833 5833 5833 5833 5833 5832 5832 5831 5830 5829 5829 5828 5827 5826 5826 5826 5825 5825 5825 5825 5825 5825
5787 5792 5795 5797 5799 5802 5804 5806 5810 5812 5813 5816 5818 5821 5824 5825 5826 5827 5828 5828 5828 5829 5829 5829 5829 5829 5828 5828 5828 5827 5826 5826 5825 5825 5824 5823 5823 5822 5822 5822 5822 5823 5823 5822
5781 5785 5788 5791 5793 5796 5799 5802 5804 5806 5807 5810 5813 5816 5819 5821 5822 5823 5824 5824 5825 5825 5825 5825 5825 5824 5824 5824 5824 5823 5822 5822 5821 5820 5820 5819 5819 5818 5818 5819 5819 5820 5820 5820
5774 5778 5782 5784 5786 5789 5793 5795 5798 5800 5802 5805 5808 5813 5814 5816 5817 5818 5819 5820 5820 5821 5821 5821 5821 5820 5820 5820 5820 5819 5818 5818 5817 5817 5816 5816 5815 5815 5815 5816 5817 5817 5817 5817
5767 5771 5775 5778 5781 5783 5786 5789 5792 5795 5797 5800 5803 5809 5810 5811 5812 5814 5815 5816 5816 5817 5817 5817 5817 5816 5816 5816 5816 5815 5815 5814 5814 5813 5813 5813 5813 5813 5813 5813 5814 5814 5815 5815
5761 5764 5768 5771 5775 5777 5779 5783 5786 5789 5792 5794 5797 5804 5805 5806 5808 5809 5810 5811 5812 5812 5813 5813 5813 5812 5812 5812 5812 5812 5811 5811 5810 5810 5810 5810 5810 5810 5810 5810 5811 5811 5812 5812
5754 5757 5762 5766 5768 5771 5774 5778 5781 5783 5785 5788 5792 5797 5799 5801 5803 5805 5806 5807 5808 5808 5808 5808 5808 5809 5808 5808 5808 5808 5807 5807 5807 5807 5807 5807 5807 5807 5807 5807 5807 5808 5809 5809
5746 5751 5754 5759 5763 5765 5768 5772 5775 5778 5781 5784 5787 5790 5794 5796 5798 5800 5801 5802 5803 5803 5803 5804 5804 5804 5804 5804 5804 5804 5803 5803 5803 5803 5803 5803 5803 5803 5804 5804 5804 5804 5805 5806
5740 5744 5748 5752 5756 5759 5762 5766 5769 5772 5775 5778 5781 5785 5788 5790 5792 5793 5795 5796 5797 5798 5798 5798 5798 5799 5799 5799 5799 5799 5798 5798 5798 5798 5799 5799 5799 5799 5800 5800 5800 5801 5801 5802
5733 5738 5741 5745 5749 5752 5756 5760 5763 5766 5769 5772 5775 5780 5782 5784 5786 5787 5789 5790 5792 5793 5793 5793 5793 5794 5794 5794 5794 5794 5794 5794 5794 5794 5794 5795 5795 5795 5796 5796 5796 5796 5797 5797
5727 5731 5734 5739 5743 5746 5753 5755 5757 5760 5763 5766 5769 5773 5776 5778 5780 5781 5783 5784 5786 5787 5787 5788 5788 5788 5789 5789 5789 5789 5789 5789 5789 5789 5789 5790 5790 5790 5791 5791 5791 5792 5792 5793
5720 5724 5728 5732 5735 5739 5745 5748 5751 5754 5757 5760 5763 5766 5769 5771 5773 5775 5777 5778 5779 5781 5781 5782 5783 5783 5783 5783 5783 5784 5784 5784 5784 5784 5784 5785 5785 5785 5785 5786 5786 5787 5787 5788
5713 5717 5722 5725 5729 5733 5739 5743 5745 5749 5751 5755 5757 5760 5762 5764 5767 5770 5771 5772 5773 5774 5775 5776 5776 5776 5777 5777 5777 5778 5778 5779 5779 5779 5779 5779 5779 5780 5780 5781 5781 5782 5782 5783
5707 5711 5715 5719 5723 5727 5732 5736 5739 5743 5746 5749 5751 5753 5756 5758 5761 5763 5764 5766 5767 5768 5769 5769 5770 5770 5770 5771 5771 5771 5772 5773 5773 5773 5773 5774 5774 5774 5774 5775 5775 5776 5777 5778
5701 5706 5709 5713 5717 5724 5726 5729 5732 5735 5739 5742 5745 5747 5749 5752 5754 5755 5757 5759 5760 5761 5762 5762 5763 5764 5764 5764 5765 5765 5766 5766 5767 5767 5768 5768 5768 5768 5769 5769 5770 5771 5771 5772
5696 5701 5704 5709 5714 5717 5719 5723 5726 5729 5732 5735 5738 5740 5743 5745 5746 5748 5749 5751 5752 5754 5755 5755 5756 5757 5758 5758 5759 5759 5759 5760 5760 5761 5761 5762 5763 5763 5763 5764 5764 5765 5765 5766
5692 5696 5700 5703 5707 5711 5714 5717 5720 5723 5725 5728 5731 5733 5735 5737 5739 5740 5741 5743 5745 5746 5747 5748 5749 5750 5751 5751 5752 5753 5753 5753 5754 5755 5755 5756 5757 5757 5758 5758 5759 5759 5760 5760
5689 5692 5695 5698 5702 5706 5709 5712 5715 5717 5720 5722 5724 5726 5728 5729 5731 5732 5734 5735 5737 5738 5739 5740 5741 5742 5743 5744 5744 5745 5746 5747 5748 5749 5749 5750 5751 5752 5752 5753 5753 5754 5755 5755
5685 5689 5692 5695 5698 5701 5704 5707 5709 5712 5714 5716 5717 5719 5721 5722 5723 5724 5726 5727 5729 5730 5731 5732 5733 5734 5735 5737 5737 5738 5739 5740 5741 5742 5743 5744 5744 5745 5746 5747 5747 5747 5748 5748